Weather History for KGCM - March, 2013

Change the Weather History Date:

Sunday, March 24, 2013

  Actual Average (KTUL) Record (KTUL)
Temperature  
Mean Temperature 34 °F 54 °F  
Max Temperature 41 °F 65 °F 91 °F (1929)
Min Temperature 28 °F 42 °F 19 °F (1966)
Degree Days  
Heating Degree Days 30 12  
Month to date heating degree days 362  
Since 1 July heating degree days 3273  
Cooling Degree Days 0 1  
Month to date cooling degree days 3  
Year to date cooling degree days 4  
Moisture  
Dew Point 27 °F    
Average Humidity 81    
Maximum Humidity 100    
Minimum Humidity 56    
Precipitation  
Precipitation 0.02 in 0.11 in 2.00 in (1913)
Month to date precipitation 2.49  
Year to date precipitation 6.00  
Sea Level Pressure  
Sea Level Pressure 30.00 in    
Wind  
Wind Speed 12 mph (NW)    
Max Wind Speed 23 mph    
Max Gust Speed 32 mph    
Visibility 8 miles    
Events Rain , Snow    
T = Trace of Precipitation, MM = Missing Value Source: NWS Daily Summary

Daily Weather History Graph

Daily Weather History Graph

Search for Another Location

Airport or City:

Trip Planner

Search our weather history database for the weather conditions in past years. The results will help you decide how hot, cold, wet, or windy it might be!

Date:

Astronomy

Mar. 24, 2013 Rise Set
Actual Time 7:19 AM CDT 7:37 PM CDT
Civil Twilight 6:53 AM CDT 8:03 PM CDT
Nautical Twilight 6:23 AM CDT 8:33 PM CDT
Astronomical Twilight 5:52 AM CDT 9:04 PM CDT
Moon 5:10 PM CDT (3/24) 5:25 AM CDT (3/24)
Length of Visible Light 13h 09m
Length of Day
12h 18m
Waxing Gibbous, 92% of the Moon is Illuminated
Mar 24
Waxing Gibbous
Mar 27
Full
Apr 2
Last Quarter
Apr 10
New
Apr 18
First Quarter

Hourly Weather History & Observations

Time (CDT) Temp. Windchill Dew Point Humidity Pressure Visibility Wind Dir Wind Speed Gust Speed Precip Events Conditions
12:15 AM 41.0 °F 37.1 °F 37.4 °F 87% 29.80 in 3.0 mi NW 5.8 mph - N/A   Drizzle
12:35 AM 37.4 °F 32.8 °F 37.4 °F 100% 29.83 in 4.0 mi NNW 5.8 mph - N/A Rain Rain
12:55 AM 37.4 °F 31.4 °F 35.6 °F 93% 29.81 in 3.0 mi NNW 8.1 mph 18.4 mph N/A   Drizzle
1:15 AM 37.4 °F 29.3 °F 35.6 °F 93% 29.77 in 2.5 mi NNE 12.7 mph 16.1 mph N/A   Light Drizzle
1:35 AM 35.6 °F 30.7 °F 35.6 °F 100% 29.79 in 3.0 mi NNE 5.8 mph - N/A Rain Light Rain
1:55 AM 35.6 °F 29.9 °F 35.6 °F 100% 29.81 in 4.0 mi WNW 6.9 mph - N/A   Overcast
2:15 AM 35.6 °F 28.0 °F 35.6 °F 100% 29.80 in 4.0 mi WNW 10.4 mph - N/A Rain Light Rain
2:35 AM 35.6 °F 29.2 °F 35.6 °F 100% 29.80 in 3.0 mi NW 8.1 mph - N/A Rain Heavy Rain
2:55 AM 35.6 °F 27.5 °F 33.8 °F 93% 29.80 in 2.5 mi WNW 11.5 mph - 0.01 in   Drizzle
3:15 AM 35.6 °F 26.2 °F 33.8 °F 93% 29.80 in 7.0 mi WNW 15.0 mph 19.6 mph N/A   Light Drizzle
3:35 AM 33.8 °F 23.5 °F 32.0 °F 93% 29.80 in 2.5 mi WNW 16.1 mph 25.3 mph N/A   Drizzle
3:55 AM 32.0 °F 21.6 °F 32.0 °F 100% 29.80 in 1.5 mi WNW 15.0 mph 21.9 mph N/A Rain Rain
4:15 AM 32.0 °F 22.5 °F 32.0 °F 100% 29.80 in 1.2 mi WNW 12.7 mph - 0.01 in Snow Light Snow
4:35 AM 32.0 °F 20.8 °F 32.0 °F 100% 29.79 in 2.5 mi NW 17.3 mph 25.3 mph 0.01 in Snow Light Snow
4:55 AM 32.0 °F 21.6 °F 32.0 °F 100% 29.79 in 2.5 mi NW 15.0 mph 20.7 mph 0.01 in Snow Light Snow
5:15 AM 32.0 °F 20.5 °F 32.0 °F 100% 29.80 in 2.5 mi NW 18.4 mph 29.9 mph N/A Snow Light Snow
5:35 AM 32.0 °F 21.2 °F 32.0 °F 100% 29.81 in 7.0 mi NW 16.1 mph 25.3 mph N/A   Overcast
5:55 AM 32.0 °F 21.6 °F 30.2 °F 93% 29.82 in 7.0 mi NW 15.0 mph 23.0 mph N/A Snow Light Snow
6:15 AM 32.0 °F 21.2 °F 30.2 °F 93% 29.83 in 7.0 mi NW 16.1 mph 23.0 mph N/A   Overcast
6:35 AM 32.0 °F 19.8 °F 30.2 °F 93% 29.84 in 10.0 mi NW 20.7 mph 27.6 mph N/A   Overcast
6:55 AM 32.0 °F 21.6 °F 30.2 °F 93% 29.85 in 10.0 mi NNW 15.0 mph 24.2 mph N/A   Overcast
7:15 AM 32.0 °F 21.6 °F 28.4 °F 87% 29.86 in 10.0 mi NNW 15.0 mph 27.6 mph N/A   Overcast
7:35 AM 32.0 °F 21.2 °F 28.4 °F 87% 29.87 in 10.0 mi NNW 16.1 mph 27.6 mph N/A   Overcast
7:55 AM 32.0 °F 22.5 °F 28.4 °F 87% 29.88 in 10.0 mi NW 12.7 mph 29.9 mph N/A   Overcast
8:15 AM 32.0 °F 20.5 °F 30.2 °F 93% 29.90 in 7.0 mi NW 18.4 mph 26.5 mph N/A Snow Light Snow
8:35 AM 32.0 °F 20.8 °F 28.4 °F 87% 29.92 in 7.0 mi NW 17.3 mph 26.5 mph N/A   Overcast
8:55 AM 32.0 °F 21.2 °F 28.4 °F 87% 29.94 in 2.5 mi NW 16.1 mph 26.5 mph N/A Snow Light Snow
9:15 AM 32.0 °F 20.5 °F 28.4 °F 87% 29.96 in 2.0 mi NW 18.4 mph 26.5 mph N/A Snow Light Snow
9:35 AM 32.0 °F 20.8 °F 28.4 °F 87% 29.97 in 5.0 mi NW 17.3 mph 27.6 mph N/A Snow Light Snow
10:15 AM 32.0 °F 19.8 °F 28.4 °F 87% 29.99 in 4.0 mi NNW 20.7 mph 29.9 mph N/A Snow Light Snow
10:35 AM 32.0 °F 20.1 °F 28.4 °F 87% 30.00 in 3.0 mi NW 19.6 mph 24.2 mph N/A Snow Light Snow
11:15 AM 32.0 °F 20.1 °F 28.4 °F 87% 30.02 in 5.0 mi NW 19.6 mph 31.1 mph N/A   Mostly Cloudy
11:35 AM 32.0 °F 21.6 °F 28.4 °F 87% 30.03 in 10.0 mi NW 15.0 mph 31.1 mph N/A   Mostly Cloudy
12:15 PM 32.0 °F 21.2 °F 28.4 °F 87% 30.06 in 10.0 mi NW 16.1 mph 24.2 mph N/A   Overcast
12:35 PM 32.0 °F 21.2 °F 28.4 °F 87% 30.06 in 10.0 mi NW 16.1 mph 25.3 mph N/A   Mostly Cloudy
12:55 PM 32.0 °F 20.1 °F 26.6 °F 80% 30.07 in 10.0 mi NW 19.6 mph 31.1 mph N/A   Mostly Cloudy
1:15 PM 32.0 °F 19.2 °F 26.6 °F 80% 30.08 in 10.0 mi NW 23.0 mph 31.1 mph N/A   Mostly Cloudy
1:35 PM 32.0 °F 20.1 °F 26.6 °F 80% 30.08 in 10.0 mi NW 19.6 mph 32.2 mph N/A   Mostly Cloudy
1:55 PM 33.8 °F 23.5 °F 26.6 °F 75% 30.08 in 10.0 mi NW 16.1 mph 28.8 mph N/A   Mostly Cloudy
2:15 PM 32.0 °F 22.5 °F 26.6 °F 80% 30.08 in 10.0 mi NW 12.7 mph 27.6 mph N/A   Overcast
2:35 PM 33.8 °F 23.2 °F 26.6 °F 75% 30.08 in 10.0 mi NNW 17.3 mph 31.1 mph N/A   Mostly Cloudy
2:55 PM 33.8 °F 22.5 °F 26.6 °F 75% 30.07 in 10.0 mi NW 19.6 mph 28.8 mph N/A   Mostly Cloudy
3:15 PM 33.8 °F 22.5 °F 26.6 °F 75% 30.08 in 10.0 mi NW 19.6 mph 26.5 mph N/A   Overcast
3:35 PM 33.8 °F 23.9 °F 24.8 °F 70% 30.08 in 10.0 mi NNW 15.0 mph 28.8 mph N/A   Overcast
3:55 PM 33.8 °F 24.3 °F 26.6 °F 75% 30.08 in 10.0 mi NW 13.8 mph 24.2 mph N/A   Mostly Cloudy
4:15 PM 35.6 °F 26.2 °F 26.6 °F 70% 30.07 in 10.0 mi NNW 15.0 mph 25.3 mph N/A   Mostly Cloudy
4:35 PM 37.4 °F 27.5 °F 26.6 °F 65% 30.08 in 10.0 mi NNW 18.4 mph 31.1 mph N/A   Mostly Cloudy
4:55 PM 35.6 °F 25.2 °F 24.8 °F 65% 30.08 in 10.0 mi NW 18.4 mph 28.8 mph N/A   Scattered Clouds
5:15 PM 37.4 °F 27.8 °F 24.8 °F 60% 30.08 in 10.0 mi NNW 17.3 mph 25.3 mph N/A   Scattered Clouds
5:35 PM 35.6 °F 25.5 °F 23.0 °F 60% 30.08 in 10.0 mi NW 17.3 mph 25.3 mph N/A   Scattered Clouds
5:55 PM 35.6 °F 26.6 °F 23.0 °F 60% 30.09 in 10.0 mi NNW 13.8 mph 24.2 mph N/A   Scattered Clouds
6:15 PM 35.6 °F 26.6 °F 23.0 °F 60% 30.10 in 10.0 mi NW 13.8 mph 24.2 mph N/A   Clear
6:35 PM 35.6 °F 27.5 °F 23.0 °F 60% 30.11 in 10.0 mi NW 11.5 mph 21.9 mph N/A   Clear
6:55 PM 35.6 °F 25.5 °F 21.2 °F 56% 30.11 in 10.0 mi NNW 17.3 mph 24.2 mph N/A   Clear
7:15 PM 33.8 °F 25.3 °F 21.2 °F 60% 30.13 in 10.0 mi NNW 11.5 mph 17.3 mph N/A   Clear
7:35 PM 33.8 °F 24.8 °F 19.4 °F 56% 30.14 in 10.0 mi NNW 12.7 mph 21.9 mph N/A   Clear
7:55 PM 32.0 °F 23.0 °F 19.4 °F 60% 30.15 in 10.0 mi NNW 11.5 mph 18.4 mph N/A   Clear
8:15 PM 32.0 °F 23.6 °F 19.4 °F 60% 30.16 in 10.0 mi NNW 10.4 mph 16.1 mph N/A   Clear
8:35 PM 32.0 °F 23.6 °F 21.2 °F 64% 30.16 in 10.0 mi NNW 10.4 mph 17.3 mph N/A   Clear
8:55 PM 32.0 °F 24.8 °F 21.2 °F 64% 30.18 in 10.0 mi NW 8.1 mph - N/A   Clear
9:15 PM 32.0 °F 24.8 °F 21.2 °F 64% 30.19 in 10.0 mi NW 8.1 mph - N/A   Clear
9:35 PM 32.0 °F 26.4 °F 21.2 °F 64% 30.20 in 10.0 mi WNW 5.8 mph - N/A   Clear
9:55 PM 30.2 °F 24.3 °F 21.2 °F 69% 30.20 in 10.0 mi WNW 5.8 mph - N/A   Clear
10:15 PM 28.4 °F 22.2 °F 21.2 °F 74% 30.20 in 10.0 mi WNW 5.8 mph - N/A   Clear
10:35 PM 28.4 °F 22.2 °F 21.2 °F 74% 30.21 in 10.0 mi WNW 5.8 mph - N/A   Clear
10:55 PM 28.4 °F 22.2 °F 21.2 °F 74% 30.20 in 10.0 mi West 5.8 mph - N/A   Clear
11:15 PM 28.4 °F 23.3 °F 21.2 °F 74% 30.20 in 10.0 mi WNW 4.6 mph - N/A   Clear
11:35 PM 28.4 °F 21.2 °F 21.2 °F 74% 30.20 in 10.0 mi WNW 6.9 mph - N/A   Clear
11:55 PM 28.4 °F 22.2 °F 21.2 °F 74% 30.19 in 10.0 mi NW 5.8 mph - N/A   Clear